Hourly Data Report for April 07, 2012

HALIFAX STANFIELD INT'L A
NOVA SCOTIA

44°52'48.060" N
63°30'00.050" W
145.40 m
8202250
71395
YHZ

Download Data

Hourly Data (April 2012)
Hourly Data Report for April 7, 2012
TIME
LST
Temp Definition
°C
Dew Point Definition
°C
Rel Hum Definition
%
Precip. Amount Definition
mm

Wind Dir Definition
10's deg

Wind Spd Definition
km/h
Visibility Definition
km
Stn Press Definition
kPa
Hmdx Definition


Wind Chill Definition


Weather Definition


00:00 -0.2 -4.0 76   3 6 24.1 99.45   -2 Mainly Clear
01:00 -0.6 -3.8 79   5 7 24.1 99.44   -3 Mainly Clear
02:00 -0.6 -3.6 80   4 6 24.1 99.44   -3 Mainly Clear
03:00 -0.8 -3.3 83   3 9 24.1 99.42   -4 Mostly Cloudy
04:00 -1.3 -3.1 88   1 7 24.1 99.35   -4 Mostly Cloudy
05:00 -1.1 -2.9 88   2 7 24.1 99.37   -4 Mostly Cloudy
06:00 -0.8 -2.3 90   2 7 24.1 99.37   -3 Mostly Cloudy
07:00 -0.1 -1.8 88   3 7 24.1 99.34   -3 Mostly Cloudy
08:00 1.8 -2.1 75   2 9 24.1 99.37     Mostly Cloudy
09:00 3.9 -3.5 58   36 13 24.1 99.35     Mostly Cloudy
10:00 5.7 -3.9 50   2 13 24.1 99.34     Cloudy
11:00 6.7 -4.1 46   36 22 24.1 99.25     Cloudy
12:00 7.5 -4.2 43   1 20 24.1 99.17     Cloudy
13:00 8.0 -4.6 41   1 30 24.1 99.12     Cloudy
14:00 7.5 -4.5 42   1 28 24.1 99.08     Cloudy
15:00 6.5 -3.7 48   36 28 24.1 99.03     Cloudy
16:00 5.2 -3.2 55   2 28 24.1 99.02     Cloudy
17:00 2.7 -0.3 81   3 26 19.3 99.05     Rain, Snow
18:00 0.6 -0.4 93   2 19 2.0 99.04     Snow
19:00 0.3 -0.1 97   35 20 2.0 98.99     Snow
20:00 0.3 -0.2 96   34 28 3.2 98.93     Snow
21:00 0.1 -0.3 97   35 28 2.4 98.89     Snow
22:00 0.0 -0.5 96   35 39 4.8 98.81   -7 Snow
23:00 -0.5 -0.9 97   34 33 3.2 98.71   -7 Snow

Notes on Data Quality.

Legend

  • E = Estimated
  • M = Missing
  • NA = Not Available*
  • [empty] = Indicates an unobserved value
Date modified: